Location: Bathurst
(33.4193°S, 149.5775°E)
Time: 04:24:00
(UTC+10:00)

A-11 Canister half - Visible Passes

Search period start: 19 June 2021 00:00
Search period end: 29 June 2021 00:00
Orbit: 1527 x 1681 km, 47.3° (Epoch: 17 June)

Date Brightness Start Highest point End Pass type
(mag) Time Alt. Az. Time Alt. Az. Time Alt. Az.
19 Jun 9.2 17:09:01 10° SW 17:19:17 83° SE 17:29:14 10° NE visible
19 Jun 10.6 19:15:18 10° WSW 19:23:40 31° NW 19:31:51 10° N visible
20 Jun 10.6 18:53:28 10° WSW 19:02:04 33° NW 19:10:27 10° N visible
21 Jun 10.6 18:31:38 10° WSW 18:40:26 35° NW 18:49:02 10° N visible
22 Jun 10.6 18:09:50 10° WSW 18:18:49 38° NW 18:27:35 10° NNE visible
23 Jun 10.5 17:48:01 10° WSW 17:57:11 40° NW 18:06:07 10° NNE visible
24 Jun 10.5 17:26:15 10° WSW 17:35:33 43° NW 17:44:38 10° NNE visible
25 Jun 11.5 06:37:26 10° N 06:44:33 23° NE 06:51:50 10° ESE visible
26 Jun 11.5 06:16:10 10° N 06:22:57 22° NE 06:29:53 10° E visible
27 Jun 11.5 05:54:57 10° NNE 06:01:22 20° ENE 06:07:54 10° E visible
28 Jun 11.5 05:33:46 10° NNE 05:39:46 18° ENE 05:45:53 10° E visible
28 Jun 12.1 18:11:11 10° WNW 18:12:30 10° WNW 18:13:49 10° NW visible
